{"data":{"norad_id":41240,"epoch":"2026-09-20T03:33:39.432384Z","epoch_age_seconds":44635,"freshness":"FRESH","line1":"1 41240U 16002A   26263.14837306 -.00000045  00000+0  69310-4 0  9993","line2":"2 41240  66.0403 286.1889 0008622 267.1574  92.8458 12.87627598499478","mean_motion":12.87627598,"eccentricity":0.0008622,"inclination_deg":66.0403,"raan_deg":286.1889,"arg_perigee_deg":267.1574,"mean_anomaly_deg":92.8458,"bstar":6.931e-5,"rev_number":49947,"period_min":111.83357690039,"perigee_km":1304.324281329,"apogee_km":1317.5833495311,"semimajor_km":7689.09081543,"source":"CELESTRAK","updated_at":"2026-09-20T09:00:33.966060Z"}}